Weather History for Clinton-Sherman, OK

Change the Weather History Date:

Sunday, August 25, 2013

  Actual Average Record
Temperature  
Mean Temperature 84 °F -  
Max Temperature 97 °F 91 °F 102 °F (1999)
Min Temperature 73 °F 68 °F 57 °F (2010)
Cooling Degree Days 20    
Growing Degree Days 34 (Base 50)    
Moisture  
Dew Point 63 °F    
Average Humidity 52    
Maximum Humidity 76    
Minimum Humidity 30    
Precipitation  
Precipitation 0.00 in - - ()
Sea Level Pressure  
Sea Level Pressure 30.09 in    
Wind  
Wind Speed 11 mph (SSE)    
Max Wind Speed 15 mph    
Max Gust Speed 23 mph    
Visibility 10 miles    
Events      
Averages and records for this station are not official NWS values.
T = Trace of Precipitation, MM = Missing Value Source: NWS Daily Summary

Daily Weather History Graph

Daily Weather History Graph

Search for Another Location

Airport:

Trip Planner

Search our weather history database for the weather conditions in past years. The results will help you decide how hot, cold, wet, or windy it might be!

Date:

Astronomy

Aug. 25, 2013 Rise Set
Actual Time 7:04 AM CDT 8:12 PM CDT
Civil Twilight 6:37 AM CDT 8:39 PM CDT
Nautical Twilight 6:06 AM CDT 9:10 PM CDT
Astronomical Twilight 5:33 AM CDT 9:42 PM CDT
Moon 10:58 PM CDT (8/25) 11:54 AM CDT (8/25)
Length of Visible Light 14h 01m
Length of Day
13h 08m
Waning Gibbous, 75% of the Moon is Illuminated
Aug 25
Waning Gibbous
Aug 28
Last Quarter
Sep 5
New
Sep 12
First Quarter
Sep 19
Full

Hourly Weather History & Observations

Time (CDT) Temp. Heat Index Dew Point Humidity Pressure Visibility Wind Dir Wind Speed Gust Speed Precip Events Conditions
12:53 AM 80.1 °F 82.1 °F 66.0 °F 62% 30.06 in 10.0 mi SE 12.7 mph - N/A   Clear
1:53 AM 78.1 °F - 66.0 °F 66% 30.07 in 10.0 mi SE 12.7 mph - N/A   Clear
2:53 AM 75.9 °F - 66.0 °F 71% 30.07 in 10.0 mi SE 8.1 mph - N/A   Clear
3:53 AM 75.9 °F - 66.0 °F 71% 30.08 in 10.0 mi SE 6.9 mph - N/A   Clear
4:53 AM 75.0 °F - 64.9 °F 71% 30.08 in 10.0 mi SE 5.8 mph - N/A   Clear
5:53 AM 73.0 °F - 64.9 °F 76% 30.09 in 10.0 mi SSE 6.9 mph - N/A   Clear
6:53 AM 73.0 °F - 64.9 °F 76% 30.11 in 10.0 mi SSE 6.9 mph - N/A   Clear
7:53 AM 75.0 °F - 64.9 °F 71% 30.12 in 10.0 mi SE 6.9 mph - N/A   Clear
8:53 AM 80.1 °F 82.1 °F 66.0 °F 62% 30.13 in 10.0 mi SSE 11.5 mph - N/A   Clear
9:53 AM 84.0 °F 85.8 °F 64.9 °F 53% 30.13 in 10.0 mi South 15.0 mph - N/A   Clear
10:53 AM 88.0 °F 89.6 °F 64.9 °F 46% 30.13 in 10.0 mi South 15.0 mph - N/A   Clear
11:53 AM 91.0 °F 93.0 °F 64.9 °F 42% 30.12 in 10.0 mi South 13.8 mph - N/A   Clear
12:53 PM 91.9 °F 92.9 °F 63.0 °F 38% 30.11 in 10.0 mi South 9.2 mph - N/A   Clear
1:53 PM 91.9 °F 92.5 °F 62.1 °F 37% 30.10 in 10.0 mi SSE 5.8 mph - N/A   Partly Cloudy
2:53 PM 95.0 °F 94.8 °F 60.1 °F 31% 30.08 in 10.0 mi ESE 11.5 mph 18.4 mph N/A   Mostly Cloudy
3:53 PM 96.1 °F 96.9 °F 62.1 °F 32% 30.06 in 10.0 mi SSE 15.0 mph - N/A   Partly Cloudy
4:53 PM 95.0 °F 94.4 °F 59.0 °F 30% 30.05 in 10.0 mi SE 9.2 mph - N/A   Scattered Clouds
5:53 PM 95.0 °F 94.8 °F 60.1 °F 31% 30.06 in 10.0 mi SSE 13.8 mph 23.0 mph N/A   Scattered Clouds
6:53 PM 91.9 °F 91.8 °F 61.0 °F 35% 30.05 in 10.0 mi SSE 13.8 mph - N/A   Clear
7:53 PM 90.0 °F 90.0 °F 61.0 °F 38% 30.05 in 10.0 mi SE 11.5 mph - N/A   Clear
8:53 PM 87.1 °F 86.7 °F 60.1 °F 40% 30.06 in 10.0 mi SE 12.7 mph - N/A   Clear
9:53 PM 84.0 °F 84.5 °F 62.1 °F 47% 30.09 in 10.0 mi SE 10.4 mph - N/A   Clear
10:53 PM 81.0 °F 82.2 °F 63.0 °F 54% 30.10 in 10.0 mi SE 8.1 mph - N/A   Clear
11:53 PM 79.0 °F - 63.0 °F 58% 30.11 in 10.0 mi SE 6.9 mph - N/A   Clear